Hourly Data Report for January 29, 2017

PORT ALBERNI (AUT)
BRITISH COLUMBIA

49°18'59.700" N
124°55'36.600" W
76.20 m
1036B06
71475
WQC

Download Data

Hourly Data (January 2017)
Hourly Data Report for January 29, 2017
TIME
LST
Temp Definition
°C
Dew Point Definition
°C
Rel Hum Definition
%
Precip. Amount Definition
mm

Wind Dir Definition
10's deg

Wind Spd Definition
km/h
Visibility Definition
km
Stn Press Definition
kPa
Hmdx Definition


Wind Chill Definition


Weather Definition


00:00 5.4 3.7 89 0.0 13 5   102.03     LegendNANA
01:00 7.2 3.9 79 0.0 12 10   101.90     LegendNANA
02:00 5.8 3.9 88 0.0   0   101.83     LegendNANA
03:00 5.2 4.1 92 0.0 18 3   101.81     LegendNANA
04:00 5.3 4.7 95 0.0 21 4   101.67     LegendNANA
05:00 5.1 4.5 96 0.0 11 4   101.61     LegendNANA
06:00 7.1 6.1 94 0.0 11 18   101.58     LegendNANA
07:00 7.7 6.0 89 0.0 11 20   101.44     LegendNANA
08:00 7.8 5.9 88 0.1 10 18   101.41     LegendNANA
09:00 7.0 6.2 95 1.7 12 2   101.46     LegendNANA
10:00 7.3 6.6 96 4.0 9 10   101.50     LegendNANA
11:00 7.6 6.9 95 4.1 8 7   101.51     LegendNANA
12:00 9.0 7.7 92 0.6 8 3   101.50     LegendNANA
13:00 8.8 7.8 94 0.0 19 6   101.53     LegendNANA
14:00 9.4 8.0 91 0.0 10 3   101.57     LegendNANA
15:00 10.4 6.7 78 0.0 15 6   101.68     LegendNANA
16:00 10.0 6.1 76 0.0 16 6   101.76     LegendNANA
17:00 8.0 5.8 86 0.0 11 6   101.83     LegendNANA
18:00 6.5 5.5 93 0.0 11 15   101.87     LegendNANA
19:00 6.5 5.4 93 0.0 10 8   101.94     LegendNANA
20:00 5.6 4.7 94 0.0 14 7   102.06     LegendNANA
21:00 3.1 2.4 96 0.0 0 1   102.14     LegendNANA
22:00 1.6 1.1 97 0.0 32 4   102.19     LegendNANA
23:00 1.4 1.0 97 0.0 32 3   102.21     LegendNANA

Notes on Data Quality.

Legend

  • E = Estimated
  • M = Missing
  • NA = Not Available*
  • [empty] = Indicates an unobserved value
Date modified: